Regional Weather Roundup
Issued by NWS

Home | Current Version | Previous Version | Graphics & Text | Print | Product List | Glossary On
Versions: 1 2 3 4 5 6 7 8 9 10 11 12 13 14 15 16 17 18 19 20 21 22 23 24 25 26 27 28 29 30 31 32 33 34 35 36 37 38 39 40 41 42 43 44 45 46 47 48 49 50
000
ASUS43 KLSX 211957
RWRMO

WEATHER SUMMARY FOR MISSOURI
NATIONAL WEATHER SERVICE SPRINGFIELD MO
300 PM CDT MON AUG 21 2017

NOTE: "FAIR" INDICATES FEW OR NO CLOUDS BELOW 12,000 FEET WITH NO
       SIGNIFICANT WEATHER AND/OR OBSTRUCTIONS TO VISIBILITY.
       CURRENT SKY AND/OR WEATHER CONDITIONS ARE NOT AVAILABLE FOR
       CHILLICOTHE AND FARMINGTON.

MOZ001>031-035>038-043-044-053-054-212100-
...NORTHERN AND WESTERN MISSOURI...

CITY           SKY/WX    TMP DP  RH WIND       PRES   REMARKS
KANSAS CTY INT TSTM      73  71  93 S9G20     30.02F
LEE`S SUMMIT   CLOUDY    79  74  84 E8        30.02F
ST JOSEPH      MOSUNNY   81  75  82 SE8       29.97F
CHILLICOTHE      N/A     76  74  93 S6        30.04R

$$
MOZ066>068-077>081-088>096-101>105-212100-
...SOUTHWEST MISSOURI...

CITY           SKY/WX    TMP DP  RH WIND       PRES   REMARKS
SPRINGFIELD    SUNNY     88  74  63 S9        30.09F HX  96
JOPLIN         SUNNY     91  76  61 SW15      30.07F HX 103
BRANSON        MOSUNNY   90  72  55 S5        30.12S HX  96

$$
MOZ032>034-039>042-045>050-055>058-069>072-212100-
...CENTRAL MISSOURI...

CITY           SKY/WX    TMP DP  RH WIND       PRES   REMARKS
COLUMBIA       NOT AVBL
JEFFERSON CITY MOSUNNY   90  76  63 S7        30.03F HX 101
ROLLA          MOSUNNY   89  75  63 S6        30.09F HX  99
SEDALIA        SUNNY     87  79  76 SE5       30.05F HX 101
WARRENSBURG    SUNNY     84  73  70 E9        30.02F HX  91

$$
MOZ051-052-059>065-212100-
...EAST CENTRAL MISSOURI...

CITY           SKY/WX    TMP DP  RH WIND       PRES   REMARKS
ST LOUIS INTL  PTSUNNY   88  77  69 NE7       30.05F HX 100

$$
MOZ072>076-082>087-097>100-106>115-212100-
...SOUTH CENTRAL AND SOUTHEAST MISSOURI...

CITY           SKY/WX    TMP DP  RH WIND       PRES   REMARKS
CAPE GIRARDEAU SUNNY     91  77  63 SW9       30.06F HX 104
POPLAR BLUFF   SUNNY     91  79  67 S7        30.07F HX 107
WEST PLAINS    SUNNY     88  72  58 S8        30.13F HX  94

$$



USA.gov is the U.S. government's official web portal to all federal, state and local government web resources and services.